Simultaneous Nadir Overpasses (SNOs) Predictions

Prediction of SNOs between METOP-A and NOAA-19 Satellite Orbit:

Table of predicted SNOs for the next 14.0 days since TLE Epoch: 7/3/2021
Index Date (METOP-A) Time (METOP-A) Lat,Lon (METOP-A) SZA (METOP-A ) Date (NOAA-19) Time (NOAA-19) Lat,Lon (NOAA-19) SZA (NOAA-19 ) Distance(km) Time Diff (sec)
1 07/06/2021 05:38:17 -80.80, -77.10 121.86 07/06/2021 05:37:19 -80.80, -77.05 121.86 1.10 58
2 07/06/2021 06:28:57 80.81, 90.43 58.17 07/06/2021 06:28:17 80.81, 90.57 58.17 2.51 40
3 07/06/2021 07:19:38 -80.81,-102.25 121.83 07/06/2021 07:19:19 -80.81,-102.43 121.84 3.22 19
4 07/06/2021 08:10:19 80.80, 64.93 58.16 07/06/2021 08:10:18 80.81, 64.81 58.16 2.25 1
5 07/06/2021 09:01:00 -80.80,-127.74 121.84 07/06/2021 09:01:19 -80.81,-127.81 121.83 1.33 19
6 07/06/2021 09:51:39 80.82, 39.79 58.19 07/06/2021 09:52:16 80.81, 39.79 58.19 0.25 37
7 07/06/2021 10:42:20 -80.82,-152.89 121.81 07/06/2021 10:43:17 -80.82,-152.83 121.81 1.21 57



Historial Predications of SNOs between METOP-A and NOAA-19
